Location: Saratoga Springs
(43.0831°N, 73.7850°W)
Time: 12:09:01
(UTC-04:00)

Vanguard 1 Rocket - Pass Details

Date: 25 April 2024
Orbit: 651 x 4220 km, 34.3° (Epoch: 19 May)

Event Time Altitude Azimuth Distance (km) Brightness Sun altitude
Rises 00:17:58 0° 263° (W) 4,164 10.8 -33.0°
Reaches altitude 10° 00:21:18 10° 246° (WSW) 3,619 10.3 -33.1°
Enters shadow 00:21:21 10° 246° (WSW) 3,613 10.3 -33.1°
